Temperature
19 19 19 19 19 19 19 19 20 19 19 19 19 19 19 19 19 19 18 18 18 18 18 18 18 18 18 18 18 18 18 18 18 17 17 17 17 17 17 17 17 17 17
20 19 19 19 19 19 20 20 20 20 19 19 19 19 19 19 19 18 18 18 18 18 18 18 18 18 18 18 18 18 18 18 17 17 17 17 17 17 17 17 17 17 17
20 19 19 19 19 19 20 20 20 20 19 19 19 19 19 19 19 18 18 18 18 18 18 18 18 18 18 18 18 18 17 17 17 17 17 17 17 17 17 17 17 17 17
20 20 19 19 19 19 20 20 19 19 19 19 19 19 19 19 18 18 18 18 18 18 18 18 18 18 18 18 17 17 17 17 17 17 17 17 17 17 17 17 17 17 17
20 20 20 19 19 19 19 19 19 19 19 19 19 19 19 18 18 18 18 18 18 18 18 18 18 18 17 17 17 17 17 17 17 17 17 17 17 17 17 17 17 17 17
20 20 20 19 19 19 19 19 19 19 19 19 19 19 19 18 18 18 18 18 18 18 18 18 18 17 17 17 17 17 17 17 17 17 17 17 17 17 17 17 17 17 17
20 20 20 19 19 19 19 19 19 19 19 19 19 19 19 18 18 18 18 18 18 18 18 18 17 17 17 17 17 17 17 17 17 17 17 17 17 17 17 17 17 17 17
20 20 19 19 19 19 19 19 19 19 19 19 19 18 18 18 18 18 18 18 18 18 18 17 17 17 17 17 17 17 17 17 17 17 17 17 17 17 17 17 17 17 17
20 20 19 19 19 19 19 19 19 19 19 19 18 18 18 18 18 18 18 18 18 18 17 17 17 17 17 17 17 17 17 17 17 17 17 17 17 17 17 17 17 17 17
19 19 19 19 19 19 19 19 19 19 19 19 18 18 18 18 18 18 18 18 18 18 17 17 17 17 17 17 17 17 17 17 17 17 17 17 17 17 17 17 17 17 17
19 19 19 19 19 19 19 19 19 19 18 18 18 18 18 18 18 18 18 18 18 17 17 17 17 17 17 17 17 17 18 18 17 17 17 17 17 17 17 17 17 17 17
18 18 19 19 19 19 19 18 19 18 18 18 18 18 18 18 18 18 18 18 17 17 17 17 17 17 17 17 17 17 18 18 17 17 17 17 17 17 17 17 17 17 17
19 19 18 19 19 19 19 18 18 18 18 18 18 18 18 18 18 18 17 17 17 17 17 17 17 17 17 17 17 17 18 18 17 17 17 17 17 17 17 17 17 17 17
19 19 19 18 18 18 19 19 19 18 18 18 18 18 18 18 18 17 17 17 17 17 17 17 17 17 17 17 17 17 17 17 17 17 17 17 17 17 17 17 17 17 17
19 19 19 18 18 18 18 18 18 18 18 18 18 18 18 18 18 17 17 17 17 17 17 17 17 17 17 17 17 17 17 17 17 17 17 17 17 17 17 17 16 16 16
19 19 19 18 18 18 18 18 18 18 18 18 18 18 17 17 17 17 17 17 17 17 17 17 17 17 17 17 17 17 17 17 17 17 17 17 17 17 16 16 16 16 16
19 19 19 19 18 18 18 18 18 18 18 18 18 17 17 17 17 17 17 17 17 16 16 17 17 17 17 17 17 17 17 17 17 17 16 16 16 16 16 16 16 16 16
19 18 18 18 18 18 18 18 18 18 18 18 17 17 17 17 17 17 17 16 16 16 16 16 16 16 16 16 16 16 16 16 16 16 16 16 16 16 16 16 16 16 16
18 18 18 18 18 18 18 18 18 18 17 17 17 17 17 17 17 16 16 16 16 16 16 16 16 16 16 16 16 16 16 16 16 16 16 16 16 16 16 16 16 16 16
18 18 18 18 18 18 17 17 17 17 17 17 17 17 17 17 17 16 16 16 16 16 16 16 16 16 16 16 16 16 16 16 16 16 16 16 16 16 16 16 15 15 15
17 17 17 17 17 17 17 17 17 17 17 17 17 17 17 17 16 16 16 16 16 16 16 16 16 16 16 16 16 16 16 16 16 16 16 16 16 16 16 15 15 15 15
17 17 17 17 17 17 17 17 17 17 17 17 17 16 16 16 16 16 16 16 16 16 16 16 15 15 16 16 15 16 15 15 16 16 16 16 16 16 15 15 15 15 15
17 17 17 17 17 17 17 17 16 16 17 16 16 16 16 16 16 16 16 16 16 15 15 15 15 15 15 15 15 16 16 16 15 15 16 16 16 15 15 15 15 15 15
17 17 17 16 16 17 17 16 17 17 17 17 17 16 16 16 16 16 16 16 15 15 15 15 15 15 15 15 15 15 16 16 16 15 15 15 15 15 15 15 15 15 15
17 17 17 16 16 16 17 17 16 17 17 17 17 16 16 16 16 16 16 15 15 15 15 15 15 15 15 15 15 15 15 15 15 15 15 15 15 15 15 15 15 15 15
17 17 16 16 16 16 16 16 16 17 17 17 17 16 16 16 16 16 15 15 15 15 15 15 15 15 15 15 15 15 15 15 15 15 15 15 15 15 15 15 15 15 14
Wind_Speed
9 14 22 21 20 21 21 21 21 21 21 20 20 19 18 17 16 16 15 14 13 13 13 13 13 13 13 14 14 14 15 15 15 16 16 17 17 17 17 17 17 16 18
15 19 23 22 21 21 21 21 21 21 20 20 19 18 18 17 16 15 14 14 13 13 13 13 13 13 14 14 14 14 14 14 15 15 16 16 16 16 16 16 16 15 17
18 19 23 22 22 21 21 21 20 20 20 19 18 17 17 16 15 15 14 13 13 13 13 13 14 13 14 14 14 14 14 14 15 15 15 13 14 15 15 16 16 16 16
18 18 21 23 22 21 21 20 20 20 19 18 17 17 16 15 15 14 14 13 14 14 14 14 14 14 14 13 13 13 13 14 14 14 12 11 12 14 15 15 15 15 15
14 18 22 24 22 21 21 20 19 19 18 17 17 16 15 15 14 14 14 13 14 13 14 14 13 13 13 12 12 12 12 13 13 12 11 11 11 14 15 15 15 15 14
14 17 22 24 23 22 21 20 19 18 17 17 16 15 15 14 14 14 13 13 13 13 13 13 13 12 11 11 10 11 12 12 12 11 10 11 11 14 14 14 14 14 14
15 15 21 24 23 22 21 20 19 18 17 16 15 15 14 14 14 13 13 13 13 12 12 12 12 11 10 9 9 9 10 12 11 11 10 10 11 13 14 13 13 13 13
15 13 19 24 23 22 21 20 19 18 17 16 15 14 14 13 13 12 12 12 12 11 11 11 10 10 9 9 8 9 11 12 11 10 9 9 11 13 13 13 13 12 12
12 11 13 18 21 21 21 20 19 18 17 16 14 14 13 13 12 12 12 11 11 10 10 9 9 9 8 8 8 9 10 11 10 9 9 9 11 12 12 12 12 12 11
11 10 9 13 15 17 18 19 19 18 17 16 15 14 13 12 12 11 11 10 10 9 9 8 8 7 7 7 8 8 9 10 10 8 8 9 11 11 11 11 11 11 11
12 10 10 10 12 14 15 18 18 17 17 16 14 14 12 10 10 9 9 9 9 8 8 7 6 6 7 7 7 8 8 8 8 7 8 9 10 11 11 11 10 10 10
15 12 10 10 10 12 13 14 13 13 13 12 11 11 10 9 8 8 8 8 7 7 6 6 6 6 6 6 6 6 6 7 7 6 7 9 10 10 10 10 10 9 9
15 14 11 10 10 9 7 10 9 9 9 10 10 11 10 9 7 6 5 5 5 5 5 5 6 6 6 5 4 4 4 5 5 6 6 9 9 9 9 10 9 9 9
15 15 12 11 9 8 8 8 8 7 7 7 9 11 9 6 5 5 4 4 4 4 5 5 5 5 5 5 4 3 4 3 4 5 6 8 9 9 9 9 9 9 9
15 15 15 13 11 8 7 6 7 7 7 8 9 10 10 6 4 5 4 4 4 4 4 4 4 4 4 4 3 3 2 3 4 4 3 6 8 9 8 8 9 9 9
16 15 14 14 11 9 7 6 6 7 8 9 9 10 11 9 6 5 4 4 3 3 3 4 4 4 3 2 3 3 2 2 2 3 2 4 6 8 8 8 7 8 9
14 13 13 13 11 10 8 7 6 8 9 8 9 11 11 10 9 7 4 3 3 4 4 4 4 4 2 2 2 2 2 1 1 1 2 2 3 6 7 7 6 7 8
12 12 13 14 12 10 8 7 6 8 8 8 9 10 11 11 10 8 4 3 5 5 4 3 2 3 2 2 1 2 2 1 0 1 1 2 2 3 4 5 6 7 7
12 13 12 11 13 11 9 6 6 7 7 8 9 9 10 11 11 8 5 5 6 5 3 2 2 2 2 1 1 2 2 2 1 0 0 1 2 3 3 4 5 6 6
10 11 12 12 12 10 8 5 4 5 4 6 7 9 11 10 11 9 6 6 6 4 3 3 3 2 2 1 2 3 3 2 2 1 0 0 1 2 3 3 3 4 4
10 11 12 12 11 10 8 7 7 6 5 4 5 9 10 10 11 9 6 5 5 4 4 4 3 3 2 1 2 3 3 4 4 3 2 2 1 1 1 1 1 1 1
12 13 13 12 11 11 8 6 5 5 4 3 4 6 9 10 10 9 7 5 5 4 4 3 3 3 2 2 2 3 2 3 3 4 3 2 2 2 1 1 1 1 0
13 15 14 13 12 11 9 6 5 4 4 3 3 4 5 9 10 9 9 7 6 5 5 4 4 4 3 2 1 3 3 3 1 2 3 3 2 1 1 2 2 1 0
12 13 12 12 12 11 11 11 11 8 6 5 5 4 4 7 9 10 9 8 6 5 5 4 3 3 4 2 1 2 1 3 3 1 2 2 3 2 2 1 1 1 0
10 11 12 12 10 10 11 12 11 7 5 4 5 6 5 4 6 8 9 8 6 5 5 4 4 3 3 3 3 2 2 2 2 2 1 2 2 2 2 2 1 1 1
9 9 11 11 9 10 11 11 11 11 9 9 7 7 5 4 3 5 8 7 6 5 5 4 4 5 3 3 3 2 3 2 2 2 2 1 1 2 2 2 1 1 1
Wind_Direction
159 159 154 148 142 134 129 126 124 123 122 122 123 124 125 124 123 122 121 119 116 113 110 107 106 105 106 107 107 108 109 110 110 110 109 109 108 108 107 106 104 105 107
151 157 154 151 144 137 132 129 127 126 125 125 125 126 126 126 125 123 122 121 119 116 112 110 109 108 108 109 109 110 111 113 112 111 111 110 109 109 110 109 108 111 109
148 154 153 151 146 141 136 133 131 130 129 129 128 128 127 127 125 124 122 121 120 117 114 112 111 110 109 109 111 112 113 114 111 110 108 107 110 111 112 112 111 111 110
147 151 153 152 148 144 140 137 135 133 132 132 131 130 129 129 128 126 124 122 119 116 115 114 113 111 110 110 112 113 113 113 112 110 106 109 113 115 114 114 113 112 112
146 150 156 154 151 147 144 140 138 137 136 135 135 134 133 132 130 128 126 122 119 119 118 115 113 112 111 112 114 117 117 117 116 110 106 107 114 119 118 117 115 114 114
147 151 159 156 153 150 147 144 142 141 140 139 138 137 136 135 132 130 128 124 122 120 118 115 113 111 111 112 114 121 125 121 115 113 111 114 120 124 122 120 119 118 118
150 154 160 157 156 153 151 148 146 146 144 144 143 141 139 137 134 132 131 128 125 122 119 115 113 111 109 111 114 121 126 126 122 121 121 123 128 129 126 123 122 121 120
151 153 160 160 158 157 155 152 151 151 150 149 148 146 143 141 138 136 135 131 127 124 120 117 113 109 105 104 111 120 128 127 130 130 130 133 136 133 132 129 127 125 124
149 151 156 160 160 160 159 157 156 155 154 152 152 151 148 145 142 141 139 134 131 127 123 119 113 105 98 96 107 123 134 133 134 137 140 142 143 140 138 135 134 133 131
149 152 152 154 156 159 161 162 160 160 159 157 157 156 153 149 147 145 142 141 137 132 126 120 112 102 93 92 103 118 131 132 136 140 143 151 151 148 145 143 142 140 138
159 157 154 152 154 156 160 166 164 164 165 162 162 161 154 145 144 145 147 147 142 138 130 120 110 98 89 86 99 113 121 134 141 142 152 160 160 158 154 152 150 147 146
168 166 160 157 155 156 164 163 160 161 163 160 158 152 141 139 144 147 154 151 148 140 128 116 102 90 83 82 93 109 123 141 145 151 165 169 169 167 163 161 158 156 154
170 170 166 164 159 158 155 153 151 149 151 150 150 143 139 135 137 136 141 138 131 123 103 92 81 77 81 85 92 110 129 139 155 164 177 181 177 174 171 171 169 168 166
172 173 169 168 164 160 153 152 151 148 149 150 152 150 143 137 132 130 126 123 116 109 100 89 84 78 77 76 85 101 118 134 158 168 183 188 186 183 181 181 180 180 181
177 176 174 170 168 161 152 156 158 155 156 156 156 159 158 152 146 139 132 129 127 123 112 99 90 80 65 52 63 87 114 126 153 166 185 196 195 193 191 190 191 193 193
182 180 174 172 168 161 162 159 158 159 158 158 164 168 168 165 156 146 139 137 136 135 123 111 101 92 78 62 55 66 92 112 142 169 189 204 205 203 202 202 203 205 203
180 176 173 172 166 165 165 165 161 162 163 167 171 172 172 171 162 152 144 148 150 140 123 103 90 83 79 64 48 45 63 58 132 185 201 224 224 220 215 214 219 222 219
172 173 177 178 169 169 170 165 158 164 168 170 170 171 174 172 165 153 148 154 152 138 124 109 93 83 66 62 49 30 32 19 346 241 215 221 222 227 227 230 235 237 236
181 175 174 173 171 173 168 158 155 161 166 168 169 170 174 171 165 157 156 158 153 136 125 127 90 100 93 76 72 54 35 30 5 358 215 226 218 224 235 248 251 252 250
178 174 173 172 171 165 156 147 145 151 158 160 167 171 171 168 165 159 157 158 153 136 126 113 103 80 83 91 78 60 38 29 35 34 6 47 232 235 231 238 252 258 258
172 173 179 177 170 163 164 167 167 172 167 162 166 167 168 166 166 162 159 155 152 148 149 139 117 97 67 64 83 47 25 33 43 34 39 55 35 24 145 177 194 215 258
180 178 180 181 172 172 173 168 163 152 149 151 150 154 165 165 165 168 161 161 156 144 141 144 134 122 83 63 113 99 45 10 11 21 27 46 32 39 63 86 104 117 122
183 183 183 180 177 176 165 146 135 115 106 123 143 154 163 166 166 163 162 157 158 156 160 163 154 140 134 73 77 136 144 195 309 354 15 24 17 26 17 30 46 60 141
182 180 176 173 176 176 166 165 163 163 164 172 166 157 152 161 162 159 157 157 156 155 157 165 158 146 141 145 100 67 108 144 143 91 352 4 16 28 14 7 2 2 21
170 171 171 171 174 172 170 170 168 163 155 140 136 139 140 141 152 156 156 155 153 154 155 151 146 148 150 154 153 139 106 78 91 135 155 340 0 8 11 358 331 312 282
157 158 162 166 169 168 170 168 166 160 151 147 150 155 151 141 142 153 157 156 155 154 157 158 155 152 152 146 147 149 153 150 156 143 151 182 314 327 341 346 349 309 274
Height
1507 1511 1515 1518 1521 1523 1525 1527 1529 1530 1532 1533 1534 1536 1537 1538 1539 1541 1542 1543 1544 1545 1546 1547 1548 1549 1549 1550 1551 1552 1553 1554 1554 1555 1556 1557 1558 1559 1560 1561 1562 1563 1565
1504 1510 1514 1518 1521 1524 1526 1528 1530 1532 1533 1535 1536 1537 1539 1540 1541 1542 1543 1545 1546 1547 1548 1549 1549 1550 1551 1552 1553 1554 1555 1556 1557 1558 1559 1560 1561 1562 1563 1564 1565 1566 1567
1505 1509 1514 1518 1522 1524 1527 1529 1531 1533 1534 1536 1538 1539 1540 1542 1543 1544 1545 1546 1547 1548 1549 1550 1551 1552 1553 1554 1555 1556 1557 1558 1559 1560 1561 1562 1563 1565 1566 1567 1568 1569 1570
1505 1510 1514 1519 1522 1525 1528 1530 1532 1534 1536 1537 1539 1540 1542 1543 1545 1546 1547 1548 1549 1550 1551 1552 1553 1554 1555 1556 1557 1558 1559 1560 1561 1562 1563 1564 1566 1567 1568 1569 1570 1571 1572
1507 1511 1515 1519 1523 1526 1529 1531 1533 1535 1537 1539 1541 1542 1543 1545 1546 1548 1549 1550 1551 1552 1553 1554 1555 1556 1557 1558 1559 1560 1561 1562 1563 1564 1565 1567 1568 1569 1570 1571 1572 1573 1574
1507 1512 1516 1520 1524 1527 1530 1532 1534 1537 1539 1540 1542 1543 1545 1547 1548 1549 1550 1551 1552 1554 1555 1556 1557 1558 1559 1561 1562 1563 1563 1564 1565 1566 1567 1569 1570 1571 1572 1573 1574 1575 1576
1507 1512 1517 1521 1524 1528 1530 1533 1535 1538 1540 1542 1543 1545 1546 1548 1550 1551 1552 1553 1554 1555 1557 1558 1559 1560 1561 1563 1564 1564 1565 1566 1567 1568 1569 1570 1572 1573 1574 1575 1576 1577 1578
1508 1513 1517 1521 1525 1528 1531 1534 1536 1539 1541 1543 1545 1546 1548 1549 1551 1552 1554 1555 1556 1557 1558 1560 1561 1562 1563 1565 1566 1566 1567 1568 1569 1570 1571 1572 1573 1574 1575 1577 1578 1579 1580
1510 1513 1518 1522 1525 1529 1532 1534 1537 1539 1542 1544 1546 1548 1549 1551 1552 1554 1555 1556 1558 1559 1560 1561 1563 1564 1565 1566 1567 1568 1569 1570 1571 1571 1572 1574 1575 1576 1577 1578 1579 1580 1582
1510 1514 1518 1521 1525 1528 1532 1535 1537 1540 1542 1544 1547 1548 1550 1552 1554 1555 1557 1558 1559 1561 1562 1563 1564 1566 1567 1568 1569 1570 1571 1571 1572 1573 1574 1575 1576 1577 1578 1580 1581 1582 1583
1509 1513 1517 1521 1524 1528 1531 1535 1538 1540 1543 1545 1547 1549 1551 1553 1555 1556 1558 1559 1561 1562 1563 1564 1566 1567 1568 1569 1570 1572 1572 1573 1574 1575 1576 1577 1578 1579 1580 1581 1582 1583 1584
1507 1511 1516 1520 1524 1527 1531 1534 1537 1540 1543 1545 1547 1550 1552 1554 1556 1557 1559 1561 1562 1563 1564 1566 1567 1568 1569 1570 1572 1573 1574 1575 1575 1576 1577 1578 1579 1580 1581 1582 1583 1584 1585
1505 1510 1515 1519 1523 1527 1530 1534 1537 1540 1543 1545 1548 1550 1552 1555 1556 1558 1560 1561 1563 1564 1565 1567 1568 1569 1570 1572 1573 1574 1575 1575 1576 1577 1578 1579 1580 1581 1582 1583 1584 1585 1586
1503 1507 1512 1517 1522 1526 1530 1533 1536 1540 1543 1545 1548 1551 1553 1555 1557 1559 1561 1562 1563 1565 1566 1567 1569 1570 1571 1572 1573 1574 1575 1576 1577 1578 1579 1579 1580 1581 1582 1583 1584 1586 1587
1501 1505 1510 1515 1520 1525 1529 1533 1536 1539 1542 1546 1548 1551 1553 1556 1558 1559 1561 1563 1564 1565 1567 1568 1569 1570 1572 1573 1574 1575 1576 1576 1577 1578 1579 1580 1581 1582 1583 1584 1585 1586 1587
1498 1503 1508 1513 1518 1523 1528 1532 1535 1539 1542 1545 1548 1551 1553 1556 1558 1560 1561 1563 1565 1566 1567 1568 1569 1570 1571 1572 1573 1574 1575 1576 1577 1578 1579 1580 1581 1582 1583 1584 1585 1585 1586
1497 1502 1507 1512 1517 1522 1527 1531 1535 1538 1542 1545 1548 1551 1553 1556 1558 1560 1562 1563 1564 1566 1567 1568 1569 1570 1571 1572 1573 1574 1575 1576 1577 1578 1579 1580 1581 1582 1582 1583 1584 1585 1586
1496 1501 1506 1510 1514 1520 1525 1530 1534 1537 1541 1544 1547 1550 1553 1555 1557 1559 1561 1563 1564 1565 1566 1567 1568 1570 1571 1572 1573 1573 1574 1576 1577 1578 1579 1579 1580 1581 1582 1583 1583 1584 1585
1494 1499 1504 1509 1513 1518 1523 1528 1532 1536 1540 1543 1546 1549 1552 1554 1556 1558 1560 1562 1563 1565 1566 1567 1568 1569 1570 1571 1572 1573 1574 1575 1576 1577 1578 1579 1580 1581 1581 1582 1583 1583 1584
1493 1497 1502 1506 1511 1516 1521 1526 1531 1535 1538 1542 1545 1548 1551 1553 1555 1557 1559 1561 1562 1564 1565 1566 1567 1569 1570 1571 1572 1573 1574 1575 1576 1576 1577 1578 1579 1580 1581 1581 1582 1582 1583
1490 1494 1499 1504 1509 1514 1519 1523 1527 1532 1536 1540 1543 1547 1549 1552 1554 1556 1558 1560 1562 1563 1565 1566 1567 1568 1569 1570 1571 1572 1573 1574 1575 1576 1577 1578 1578 1579 1580 1581 1581 1581 1582
1486 1491 1496 1501 1506 1511 1516 1521 1526 1531 1535 1538 1542 1545 1548 1550 1553 1555 1557 1559 1561 1562 1564 1565 1566 1567 1568 1570 1571 1572 1573 1575 1575 1575 1576 1577 1578 1579 1579 1580 1580 1581 1581
1482 1487 1493 1498 1503 1509 1514 1519 1525 1529 1533 1536 1540 1543 1546 1549 1551 1553 1556 1558 1560 1561 1563 1564 1565 1566 1567 1569 1570 1571 1572 1573 1574 1575 1575 1576 1577 1578 1579 1579 1579 1580 1580
1479 1484 1489 1495 1501 1506 1511 1517 1521 1526 1530 1534 1538 1541 1545 1548 1550 1552 1554 1556 1558 1560 1562 1563 1564 1565 1566 1567 1568 1569 1571 1571 1573 1574 1575 1575 1576 1577 1578 1578 1578 1579 1579
1477 1481 1486 1493 1498 1504 1509 1514 1520 1524 1529 1533 1537 1540 1544 1546 1549 1551 1553 1555 1557 1559 1560 1561 1562 1564 1565 1566 1567 1568 1569 1570 1571 1572 1573 1574 1575 1576 1576 1577 1577 1577 1577
1477 1481 1485 1491 1497 1502 1507 1512 1517 1523 1527 1532 1535 1539 1542 1545 1547 1549 1552 1554 1556 1557 1559 1560 1561 1562 1563 1564 1565 1566 1567 1568 1569 1570 1571 1572 1573 1574 1575 1575 1575 1576 1576